VIASAT-3 F1

Last updated on Sun Apr 12 2026 00:02:56 GMT+0000 (Coordinated Universal Time)

1 56370U 23060A 26101.00400825 -.00000184 00000+0 00000+0 0 9993 2 56370 0.0138 248.3660 0000986 213.9541 9.4382 1.00271418 10766
UTC large
Height (km)
Speed (km/s)
/
Latitude / Longitude
Inclination (degrees)
Orbital Period (minutes)
Azimuth
Elevation
Range (km)
Doppler Factor

Next 0 passes for location: London (51.5072 / 0.1276)

Sorry there are no passes over London.
VIASAT-3 F1